Weather History for El Centro, CA

Change the Weather History Date:

Thursday, February 20, 2014

  Actual Average Record
Temperature  
Mean Temperature 64 °F -  
Max Temperature 80 °F 69 °F 81 °F (1997)
Min Temperature 48 °F 48 °F 41 °F (2009)
Degree Days  
Heating Degree Days 1    
Growing Degree Days 14 (Base 50)    
Moisture  
Dew Point 27 °F    
Average Humidity 33    
Maximum Humidity 71    
Minimum Humidity 9    
Precipitation  
Precipitation 0.00 in - - ()
Sea Level Pressure  
Sea Level Pressure 30.06 in    
Wind  
Wind Speed 6 mph (NW)    
Max Wind Speed 13 mph    
Max Gust Speed 17 mph    
Visibility 10 miles    
Events      
Averages and records for this station are not official NWS values.
T = Trace of Precipitation, MM = Missing Value Source: NWS Daily Summary

Daily Weather History Graph

Daily Weather History Graph

Search for Another Location

Airport:

Trip Planner

Search our weather history database for the weather conditions in past years. The results will help you decide how hot, cold, wet, or windy it might be!

Date:

Astronomy

Feb. 20, 2014 Rise Set
Actual Time 6:20 AM PST 5:32 PM PST
Civil Twilight 5:55 AM PST 5:57 PM PST
Nautical Twilight 5:26 AM PST 6:26 PM PST
Astronomical Twilight 4:58 AM PST 6:54 PM PST
Moon 11:10 PM PST (2/20) 9:25 AM PST (2/20)
Length of Visible Light 12h 01m
Length of Day
11h 11m
Waning Gibbous, 70% of the Moon is Illuminated
Feb 20
Waning Gibbous
Feb 22
Last Quarter
Mar 1
New
Mar 8
First Quarter
Mar 16
Full

Hourly Weather History & Observations

Time (PST) Temp. Dew Point Humidity Pressure Visibility Wind Dir Wind Speed Gust Speed Precip Events Conditions
12:56 AM 53.1 °F 39.9 °F 61% 29.93 in 10.0 mi North 10.4 mph - N/A   Clear
1:56 AM 50.0 °F 37.0 °F 61% 29.95 in 10.0 mi NNE 6.9 mph - N/A   Clear
2:56 AM 50.0 °F 37.9 °F 63% 29.96 in 10.0 mi WNW 3.5 mph - N/A   Clear
3:56 AM 48.0 °F 37.9 °F 68% 29.99 in 10.0 mi West 3.5 mph - N/A   Clear
4:56 AM 52.0 °F 43.0 °F 71% 30.01 in 10.0 mi SW 4.6 mph - N/A   Clear
5:56 AM 50.0 °F 37.0 °F 61% 30.05 in 10.0 mi SW 4.6 mph - N/A   Partly Cloudy
6:56 AM 48.0 °F 33.1 °F 56% 30.08 in 10.0 mi SW 3.5 mph - N/A   Partly Cloudy
7:56 AM 59.0 °F 34.0 °F 39% 30.12 in 10.0 mi SW 5.8 mph - N/A   Partly Cloudy
8:56 AM 66.0 °F 39.9 °F 38% 30.14 in 10.0 mi SW 5.8 mph - N/A   Scattered Clouds
9:56 AM 73.9 °F 27.0 °F 18% 30.17 in 10.0 mi Calm Calm - N/A   Scattered Clouds
10:56 AM 75.0 °F 21.0 °F 13% 30.16 in 10.0 mi NNE 8.1 mph - N/A   Scattered Clouds
11:56 AM 77.0 °F 15.1 °F 10% 30.14 in 10.0 mi NE 12.7 mph 16.1 mph N/A   Scattered Clouds
12:56 PM 78.1 °F 14.0 °F 9% 30.10 in 10.0 mi NE 8.1 mph - N/A   Scattered Clouds
1:56 PM 80.1 °F 15.1 °F 9% 30.08 in 10.0 mi North 6.9 mph 17.3 mph N/A   Scattered Clouds
2:56 PM 79.0 °F 15.1 °F 9% 30.06 in 10.0 mi NNE 4.6 mph - N/A   Scattered Clouds
3:56 PM 79.0 °F 18.0 °F 10% 30.05 in 10.0 mi NE 4.6 mph - N/A   Scattered Clouds
4:56 PM 78.1 °F 19.9 °F 11% 30.05 in 10.0 mi Calm Calm - N/A   Mostly Cloudy
5:56 PM 70.0 °F 25.0 °F 18% 30.05 in 10.0 mi North 3.5 mph - N/A   Scattered Clouds
6:56 PM 66.0 °F 23.0 °F 20% 30.05 in 10.0 mi North 3.5 mph - N/A   Scattered Clouds
7:56 PM 61.0 °F 25.0 °F 25% 30.06 in 10.0 mi West 3.5 mph - N/A   Partly Cloudy
8:56 PM 59.0 °F 26.1 °F 28% 30.06 in 10.0 mi Calm Calm - N/A   Partly Cloudy
9:56 PM 55.0 °F 19.0 °F 24% 30.07 in 10.0 mi WSW 3.5 mph - N/A   Partly Cloudy
10:56 PM 55.0 °F 24.1 °F 30% 30.06 in 10.0 mi WSW 6.9 mph - N/A   Partly Cloudy
11:56 PM 52.0 °F 26.1 °F 37% 30.05 in 10.0 mi West 4.6 mph - N/A   Clear